Showing default

COSMOS 2527 (GLONASS), 43508

Orbit data source: Space-Track

COSMOS 2527 (GLONASS), 43508 is a Commonwealth of Independent States-origin payload satellite in MEO that was launched on Sat, 16 Jun 2018 UTC via a SOYUZ-2-1B launch vehicle from the Plesetsk Missile And Space Complex (PKMTR). Payload-class satellites include a variety of spacecraft equipped with specific instruments for various scientific and technological missions. These include communications satellites like Starlink; space stations such as the ISS; scientific satellites like the Hubble; Earth observation satellites from companies like Planet Labs, Umbra, and HawkEye 360; GPS; miniature CubeSats for education and research; and military/defense satellites.

Loading next visibility...
Identifier
43508, 2018-053A
Orbit
MEO
Country
Flag of CISCIS
Related business
Manufacturer
Resehetnev ISS
Mission
Operational Defense Navigation
Bus & Motor
URAGAN, Unknown motor
Mass
1,450 kg wet, ~1,200 kg dry
Launch date (UTC)
2018-06-16 (7 years ago)
Launch vehicle
SOYUZ-2-1B
Launch site
Plesetsk Missile And Space Complex (PKMTR)
Object type
Payload
Rocket body
Debris
Shape & HBR
Cyl + 1 Ant + 2 Pan, 3.9 m
Radar Cross Section
8.467 m², Large (>1 m²)

Expand to show TLE details & history
Last TLE update: 1 day ago

TLE from 1 day ago
0 COSMOS 2527 (GLONASS)
1 43508U 18053A   25258.09772964  .00000037  00000-0  00000-0 0  9993
2 43508  65.4240  83.0932 0007066 214.2483 145.7587  2.13102133 56410
Epoch: 2025-09-15T02:20Z
TLE epoch observation values (Epoch: 2025-09-15T02:20:43.84Z)
Latitude
0.00001°
Longitude
53.59942°
Altitude
19,145.327 km
Speed
3.951 km/s
True Right ascension
05h 32m 21s
True Declination
0° 00' 00"
Sunlit
Object was in daylight at epoch
Visualization orbit readout
Latitude
Unknown
Longitude
Unknown
Altitude
Unknown
Speed
Unknown
Apparent Right ascension
Unknown
Apparent Declination
Unknown
Sunlit
N/A
Visualization observer readout
Local Sidereal Time
00:31:43
Azimuth
Unknown
Elevation
Unknown
Doppler factor
Unknown
Orbital elements
Apogee altitude
19,147.501 km
Perigee altitude
19,111.453 km
Semi-major axis
25,507.614 km
Eccentricity
0.00071
Inclination
65.424°
RAAN
83.0932°
Arg. of periapsis
214.2483°
True anomaly
145.80423°
Mean anomaly
145.7587°
Eccentric anomaly
145.78147°
Mean motion
0.53277 °/min
Orbital period
675.72 mins
BSTAR
0
Loading maneuver chart data...
Computing Atmospheric mass density...
Loading historical data...
Loading historical data...
Loading historical data...
Loading historical data...
Loading historical data...
Loading historical data...
Loading historical data...
Other satellites on launch #53 in the year 2018 (2018-06-16 UTC)

Documentation

Showing up to 5 results
|